Location: Bastelaar
(51.0950°N, 3.8602°E)
Time: 17:48:44
(UTC+00:00)

Cosmos 468 Rocket - Pass Details

Date: 18 November 2025
Orbit: 740 x 774 km, 74.0° (Epoch: 08 December)

Event Time Altitude Azimuth Distance (km) Brightness Sun altitude
Rises 17:39:47 0° 334° (NNW) 3,238 7.4 -16.5°
Reaches altitude 10° 17:42:11 10° 332° (NNW) 2,303 6.7 -16.9°
Maximum altitude 17:47:23 73° 249° (WSW) 792 4.2 -17.7°
Drops below altitude 10° 17:52:30 10° 165° (SSE) 2,264 6.4 -18.5°
Sets 17:54:50 0° 164° (SSE) 3,179 7.1 -18.8°
